DW7076 Floda SE current weather conditions

sailwx.info

Wind from 270

Air temperature 11.1° C
Dewpoint 10.3° C

Last reported at 2016-May-24 22:56 UTC.
Time now 2016-May-24 23:26 UTC

Location: N 57°49' E 012°21'.
View on Google Maps.

See reports from other nearby stations

  
Tides and Currents Weather Stations Pressure Air Temp Water Temp Dewpoint Dewpoint Depression Visibility Wind Speed Wind Dir Waves Ship Positions
date/time (UTC)wind fromknots sea level pressurealtimeterstation pressurevisibilityair tempwater tempwave heightnotes
2016-May-24 22:56 270 11.1
2016-May-24 22:46 112 0 gusting 2 11.1
2016-May-24 22:36 020 0 gusting 2 11.1
2016-May-24 22:26 034 0 gusting 2 11.1
2016-May-24 22:16 020 11.1
2016-May-24 22:06 036 0 gusting 2 11.7
2016-May-24 21:46 039 0 gusting 2 11.7
2016-May-24 21:36 310 11.7
2016-May-24 21:26 341 0 gusting 2 11.7
2016-May-24 21:16 064 0 gusting 5 12.2
2016-May-24 21:06 119 0 gusting 2 12.2
2016-May-24 20:56 031 0 gusting 6 12.2
2016-May-24 20:46 355 0 gusting 2 12.2
2016-May-24 20:36 049 0 gusting 2 12.2
2016-May-24 20:26 053 0 gusting 2 12.2
2016-May-24 20:16 053 0 gusting 2 12.2
2016-May-24 20:06 003 0 gusting 2 12.2
2016-May-24 19:56 355 12.2
2016-May-24 19:46 058 0 gusting 2 12.2
2016-May-24 19:36 058 12.2
2016-May-24 19:26 058 0 gusting 2 12.8
2016-May-24 19:16 068 0 gusting 5 12.8
2016-May-24 19:06 065 1 gusting 2 12.8
2016-May-24 18:56 065 0 gusting 2 12.8
2016-May-24 18:46 064 0 gusting 2 12.8
2016-May-24 18:26 058 13.3
2016-May-24 18:16 058 13.3
2016-May-24 18:06 058 0 gusting 2 13.3
2016-May-24 17:56 063 0 gusting 2 13.9
2016-May-24 17:46 060 13.9
2016-May-24 17:36 058 13.9
2016-May-24 17:26 058 13.9
2016-May-24 17:16 057 2 gusting 5 13.9
2016-May-24 17:06 096 1 gusting 2 14.4
2016-May-24 16:56 024 0 gusting 6 14.4
2016-May-24 16:46 357 0 gusting 1 14.4
2016-May-24 16:36 034 14.4
2016-May-24 16:26 301 14.4
2016-May-24 16:16 022 14.4
2016-May-24 13:56 013 0 gusting 6 17.8
2016-May-24 13:46 013 0 gusting 12 18.9
2016-May-24 13:36 106 0 gusting 4 19.4
2016-May-24 13:26 039 1 gusting 8 20.0
2016-May-24 13:16 359 1 gusting 6 20.0
2016-May-24 13:06 346 2 gusting 7 20.0
2016-May-24 12:46 063 1 gusting 6 21.1
2016-May-24 12:36 330 0 gusting 4 21.1
2016-May-24 12:26 355 1 gusting 4 21.1
2016-May-24 12:16 044 0 gusting 8 21.1
2016-May-24 12:06 069 0 gusting 5 21.7
2016-May-24 11:46 041 1 gusting 6 21.7
2016-May-24 11:36 078 1 gusting 4 22.2
2016-May-24 11:26 065 1 gusting 6 21.7
2016-May-24 11:16 297 0 gusting 6 21.7
2016-May-24 11:06 059 0 gusting 7 21.1
2016-May-24 10:56 103 1 gusting 7 21.1
2016-May-24 10:36 328 0 gusting 8 20.6
2016-May-24 10:26 329 4 gusting 10 20.6
2016-May-24 10:16 326 1 gusting 7 20.6
2016-May-24 10:06 320 1 gusting 6 20.6
2016-May-24 09:56 071 1 gusting 8 20.0
2016-May-24 09:46 314 0 gusting 10 19.4
2016-May-24 09:36 036 1 gusting 6 18.3
2016-May-24 09:26 103 1 gusting 7 18.3
2016-May-24 09:06 100 0 gusting 6 18.3
2016-May-24 08:56 327 0 gusting 4 18.9
2016-May-24 08:46 061 1 gusting 2 18.9
2016-May-24 08:36 050 0 gusting 2 18.9
2016-May-24 08:26 047 0 gusting 2 19.4
2016-May-24 08:16 043 0 gusting 5 18.9
2016-May-24 08:06 040 0 gusting 2 18.9
2016-May-24 07:46 291 18.9
2016-May-24 07:36 109 0 gusting 2 17.8
2016-May-24 07:26 131 0 gusting 2 17.8
2016-May-24 07:16 074 1 gusting 4 17.2
2016-May-24 07:06 001 0 gusting 2 17.2
2016-May-24 06:56 038 16.7
2016-May-24 06:36 074 16.1
2016-May-24 06:26 074 1 gusting 2 16.1
2016-May-24 06:16 078 0 gusting 2 15.6
2016-May-24 06:06 273 15.6
2016-May-24 05:36 355 0 gusting 2 14.4
2016-May-24 05:26 300 0 gusting 2 14.4
2016-May-24 05:16 342 0 gusting 2 13.9
2016-May-24 05:06 036 0 gusting 2 13.9
2016-May-24 04:36 316 13.9
2016-May-24 04:26 316 13.9
2016-May-24 04:16 316 13.9
2016-May-24 04:06 316 0 gusting 1 13.9
2016-May-24 03:56 316 13.9
2016-May-24 03:46 316 13.9
2016-May-24 03:36 311 0 gusting 1 13.3
2016-May-24 03:26 340 0 gusting 2 13.3
2016-May-24 03:16 351 13.3
2016-May-24 03:06 343 13.3
2016-May-24 02:56 343 0 gusting 1 13.3
2016-May-24 02:46 343 13.3
2016-May-24 02:36 343 0 gusting 2 13.3
2016-May-24 02:26 330 13.3
2016-May-24 02:16 340 13.3
2016-May-24 02:06 340 13.3
2016-May-24 01:56 340 13.3
2016-May-24 01:36 340 13.3
2016-May-24 01:26 340 13.3
2016-May-24 01:16 338 13.3
2016-May-24 01:06 338 13.3
2016-May-24 00:56 338 13.9
2016-May-24 00:46 338 13.9
2016-May-24 00:36 338 13.9
2016-May-24 00:26 338 13.9
2016-May-24 00:16 338 13.9
2016-May-24 00:06 338 14.4
2016-May-23 23:46 338 14.4
2016-May-23 23:36 338 15.0
2016-May-23 23:26 338 15.0
2016-May-23 23:16 338 15.0
2016-May-23 23:06 287 15.0
2016-May-23 22:46 287 15.0
2016-May-23 22:36 287 15.0
2016-May-23 22:26 287 15.0
2016-May-23 22:16 286 15.0
2016-May-23 22:06 286 15.6
2016-May-23 21:56 310 1 gusting 2 15.6
2016-May-23 21:46 309 15.6
2016-May-23 21:36 309 15.6
2016-May-23 21:16 309 0 gusting 2 15.6
2016-May-23 20:56 313 0 gusting 1 16.1
2016-May-23 20:46 313 0 gusting 2 16.1
2016-May-23 20:36 313 0 gusting 2 16.1
2016-May-23 20:26 313 0 gusting 2 16.1
2016-May-23 20:16 313 16.7
2016-May-23 20:06 313 16.7
2016-May-23 19:56 313 16.7
2016-May-23 19:46 313 16.7
2016-May-23 19:36 313 16.7
2016-May-23 19:26 313 0 gusting 1 17.2
2016-May-23 19:16 313 17.2
2016-May-23 19:06 313 17.2
2016-May-23 18:56 313 0 gusting 4 17.2
2016-May-23 18:46 336 2 gusting 5 17.2
2016-May-23 18:36 344 1 gusting 5 17.2
2016-May-23 18:26 323 2 gusting 5 17.8
2016-May-23 18:16 319 1 gusting 2 17.8
2016-May-23 17:56 289 1 gusting 6 18.3
2016-May-23 17:46 327 0 gusting 5 18.9
2016-May-23 17:36 308 0 gusting 5 18.9
2016-May-23 17:26 321 1 gusting 5 19.4
2016-May-23 17:16 342 1 gusting 4 20.0
2016-May-23 17:06 329 1 gusting 4 20.0
2016-May-23 16:56 327 1 gusting 2 20.6
2016-May-23 16:46 325 0 gusting 2 20.6
2016-May-23 16:36 329 1 gusting 4 20.6
2016-May-23 16:26 307 0 gusting 2 21.1
2016-May-23 16:16 315 0 gusting 4 20.6
2016-May-23 15:56 300 1 gusting 6 20.6
2016-May-23 15:46 326 0 gusting 5 20.6
2016-May-23 15:26 225 20.6
2016-May-23 15:16 322 1 gusting 5 20.6
2016-May-23 15:06 358 2 gusting 5 20.6
2016-May-23 14:56 292 3 gusting 6 20.6
2016-May-23 14:46 287 2 gusting 8 21.1
2016-May-23 14:26 289 4 gusting 8 21.1
2016-May-23 14:16 270 3 gusting 10 21.7
2016-May-23 14:06 272 2 gusting 7 21.1
2016-May-23 13:56 285 0 gusting 2 21.1
2016-May-23 13:46 233 1 gusting 2 21.7
2016-May-23 13:36 320 2 gusting 6 21.7
2016-May-23 13:26 281 0 gusting 6 21.7
2016-May-23 13:06 252 1 gusting 6 21.7
2016-May-23 12:56 115 1 gusting 4 22.2
2016-May-23 12:46 176 2 gusting 6 21.7
2016-May-23 12:36 356 0 gusting 6 21.1
2016-May-23 12:26 297 0 gusting 2 21.1
2016-May-23 12:16 240 1 gusting 5 21.7
2016-May-23 12:06 148 0 gusting 2 21.7
2016-May-23 11:56 195 2 gusting 6 22.2
2016-May-23 11:46 257 22.2
2016-May-23 11:36 159 21.1
2016-May-23 11:26 214 3 gusting 6 21.1
2016-May-23 11:16 209 1 gusting 5 20.6
2016-May-23 11:06 171 2 gusting 8 20.6
2016-May-23 10:56 292 1 gusting 7 20.0
2016-May-23 10:46 134 2 gusting 6 20.0
2016-May-23 10:36 172 0 gusting 8 20.0
2016-May-23 10:26 239 1 gusting 6 20.0
2016-May-23 10:16 158 3 gusting 7 20.6
2016-May-23 10:06 221 0 gusting 4 18.9
2016-May-23 09:56 240 1 gusting 10 18.9
2016-May-23 09:46 174 0 gusting 6 18.3
2016-May-23 09:36 221 2 gusting 6 18.3
2016-May-23 09:26 258 1 gusting 6 18.3
2016-May-23 09:16 159 2 gusting 6 18.3
2016-May-23 09:06 137 1 gusting 6 18.3
2016-May-23 08:56 174 0 gusting 6 18.9
2016-May-23 08:46 175 1 gusting 6 18.9
2016-May-23 08:36 163 18.9
2016-May-23 08:26 276 0 gusting 5 18.9
2016-May-23 08:16 223 0 gusting 4 18.9
2016-May-23 08:06 130 1 gusting 6 18.3
2016-May-23 07:56 149 1 gusting 6 17.8
2016-May-23 07:46 200 0 gusting 6 17.2
2016-May-23 07:36 149 1 gusting 6 17.2
2016-May-23 07:26 193 3 gusting 10 17.2
2016-May-23 07:16 144 2 gusting 8 17.2
2016-May-23 07:06 185 3 gusting 7 16.7
2016-May-23 06:56 185 3 gusting 10 16.7
2016-May-23 06:46 150 3 gusting 7 16.7
2016-May-23 06:36 226 2 gusting 6 16.7
2016-May-23 06:26 166 1 gusting 6 16.1
2016-May-23 06:16 166 1 gusting 6 16.1
2016-May-23 06:06 164 1 gusting 5 16.1
2016-May-23 05:56 189 15.6
2016-May-23 05:46 153 0 gusting 2 15.6
2016-May-23 05:36 140 0 gusting 2 15.6
2016-May-23 05:26 138 0 gusting 2 15.6
2016-May-23 05:16 138 15.6
2016-May-23 05:06 098 15.0
2016-May-23 04:56 15.0
2016-May-23 04:46 15.0
2016-May-23 04:36 14.4
2016-May-23 04:26 14.4
2016-May-23 04:16 255 13.9
2016-May-23 04:06 242 13.9
2016-May-23 03:56 242 13.9
2016-May-23 03:46 242 13.9
2016-May-23 03:36 242 13.9
2016-May-23 03:26 242 13.9
2016-May-23 03:16 242 13.9
2016-May-23 03:06 242 13.9
2016-May-23 02:56 242 13.9
2016-May-23 02:46 241 14.4
2016-May-23 02:36 241 14.4
2016-May-23 02:26 241 14.4
2016-May-23 02:16 241 14.4
2016-May-23 02:06 241 14.4
2016-May-23 01:56 241 15.0
2016-May-23 01:46 241 15.0
2016-May-23 01:36 241 15.0
2016-May-23 01:26 241 15.6
2016-May-23 01:16 241 15.6
2016-May-23 01:06 241 15.6
2016-May-23 00:56 213 15.6
2016-May-23 00:46 213 16.1
2016-May-23 00:36 212 16.1
2016-May-23 00:26 240 0 gusting 6 16.1
2016-May-23 00:16 178 16.1
2016-May-23 00:06 235 2 gusting 6 16.7
2016-May-22 23:56 113 1 gusting 5 16.7
2016-May-22 23:46 110 1 gusting 8 16.7
2016-May-22 23:36 110 0 gusting 6 16.7
2016-May-22 23:26 112 1 gusting 5 16.7
2016-May-22 23:16 144 1 gusting 6 16.7
2016-May-22 23:06 215 1 gusting 6 16.7